UAL3742 KFOE-KLAX

Flight info

Callsign UAL3742
Flight time 2h 45m
Altitude 38000
Route DCT SLN J96 GCK J110 ALS DCT JASSE Q90 DNERO ANJLL4
Aircraft B789/H-SADE3GHIJ1J2J4J5M1P2RWXYZ/LB1D1

Departure

Time 2026-04-20 22:13
Airport Topeka Regional Airport (KFOE)

Arrival

Time 2026-04-21 00:58
Airport Los Angeles International Airport (KLAX)
Time Latitude Longitude Altitude Speed Heading
2026-04-20 21:09 38.95441 -95.67505 1072 ft 0 kts 358°
2026-04-20 22:08 38.95442 -95.67505 1072 ft 0 kts 358°
2026-04-20 22:08 38.95479 -95.67497 1075 ft 9 kts 30°
2026-04-20 22:08 38.95498 -95.67408 1074 ft 13 kts 89°
2026-04-20 22:08 38.95505 -95.67267 1075 ft 17 kts 72°
2026-04-20 22:09 38.95594 -95.67195 1071 ft 16 kts
2026-04-20 22:09 38.95709 -95.67206 1074 ft 17 kts 346°
2026-04-20 22:09 38.95809 -95.67291 1077 ft 18 kts 318°
2026-04-20 22:09 38.95903 -95.67404 1075 ft 19 kts 316°
2026-04-20 22:10 38.96003 -95.67525 1079 ft 20 kts 316°
2026-04-20 22:10 38.96108 -95.67653 1079 ft 21 kts 316°
2026-04-20 22:10 38.96220 -95.67788 1080 ft 22 kts 317°
2026-04-20 22:10 38.96333 -95.67924 1077 ft 21 kts 315°
2026-04-20 22:11 38.96424 -95.67967 1076 ft 8 kts 26°
2026-04-20 22:11 38.96476 -95.67904 1077 ft 13 kts 49°
2026-04-20 22:11 38.96537 -95.67812 1079 ft 7 kts 58°
2026-04-20 22:11 38.96533 -95.67776 1079 ft 3 kts 124°
2026-04-20 22:12 38.96448 -95.67671 1079 ft 45 kts 136°
2026-04-20 22:12 38.96053 -95.67202 1079 ft 107 kts 136°
2026-04-20 22:12 38.95383 -95.66399 1122 ft 150 kts 144°
2026-04-20 22:12 38.94634 -95.65399 1639 ft 162 kts 137°
2026-04-20 22:13 38.93857 -95.64345 2336 ft 162 kts 154°
2026-04-20 22:13 38.92754 -95.64288 2895 ft 175 kts 195°
2026-04-20 22:13 38.91576 -95.65056 3523 ft 211 kts 227°
2026-04-20 22:13 38.90938 -95.66869 4470 ft 243 kts 258°
2026-04-20 22:14 38.90903 -95.69065 5794 ft 252 kts 269°
2026-04-20 22:14 38.91007 -95.71315 7289 ft 254 kts 270°
2026-04-20 22:14 38.91073 -95.73602 8647 ft 259 kts 269°
2026-04-20 22:14 38.91097 -95.75929 10019 ft 262 kts 270°
2026-04-20 22:15 38.91125 -95.78355 10843 ft 285 kts 271°
2026-04-20 22:15 38.91168 -95.81026 11441 ft 313 kts 271°
2026-04-20 22:15 38.91216 -95.83919 12230 ft 330 kts 271°
2026-04-20 22:15 38.91259 -95.86879 13466 ft 335 kts 271°
2026-04-20 22:16 38.91301 -95.89896 14549 ft 341 kts 271°
2026-04-20 22:16 38.91345 -95.92965 15582 ft 347 kts 272°
2026-04-20 22:16 38.91389 -95.96083 16596 ft 352 kts 272°
2026-04-20 22:16 38.91433 -95.99253 17600 ft 358 kts 272°
2026-04-20 22:17 38.91476 -96.02471 18549 ft 363 kts 272°
2026-04-20 22:17 38.91520 -96.05745 19399 ft 368 kts 272°
2026-04-20 22:17 38.91562 -96.09053 20239 ft 372 kts 272°
2026-04-20 22:17 38.91605 -96.12393 21061 ft 376 kts 272°
2026-04-20 22:18 38.91647 -96.15779 21856 ft 381 kts 272°
2026-04-20 22:18 38.91687 -96.19193 22635 ft 385 kts 272°
2026-04-20 22:18 38.91728 -96.22646 23412 ft 388 kts 272°
2026-04-20 22:18 38.91768 -96.26132 24054 ft 392 kts 272°
2026-04-20 22:19 38.91807 -96.29646 24679 ft 394 kts 273°
2026-04-20 22:19 38.91845 -96.33183 25269 ft 398 kts 273°
2026-04-20 22:19 38.91883 -96.36746 25869 ft 400 kts 273°
2026-04-20 22:19 38.91920 -96.40332 26435 ft 403 kts 273°
2026-04-20 22:20 38.91955 -96.43942 27004 ft 406 kts 273°
2026-04-20 22:20 38.91990 -96.47573 27548 ft 408 kts 273°
2026-04-20 22:20 38.92013 -96.49991 27928 ft 410 kts 273°
2026-04-20 22:20 38.92057 -96.54855 28595 ft 413 kts 273°
2026-04-20 22:21 38.92090 -96.58560 29108 ft 416 kts 273°
2026-04-20 22:21 38.92121 -96.62286 29604 ft 419 kts 273°
2026-04-20 22:21 38.92151 -96.66038 30110 ft 421 kts 273°
2026-04-20 22:21 38.92180 -96.69813 30512 ft 424 kts 273°
2026-04-20 22:22 38.92208 -96.73606 30915 ft 426 kts 273°
2026-04-20 22:22 38.92226 -96.76182 31173 ft 427 kts 273°
2026-04-20 22:22 38.92252 -96.79955 31577 ft 429 kts 273°
2026-04-20 22:22 38.92277 -96.83788 31954 ft 431 kts 273°
2026-04-20 22:23 38.92301 -96.87641 32308 ft 433 kts 272°
2026-04-20 22:23 38.92324 -96.91517 32635 ft 435 kts 272°
2026-04-20 22:23 38.92345 -96.95410 33001 ft 436 kts 272°
2026-04-20 22:23 38.92366 -96.99316 33329 ft 438 kts 272°
2026-04-20 22:24 38.92385 -97.03240 33634 ft 440 kts 272°
2026-04-20 22:24 38.92403 -97.07175 33947 ft 442 kts 272°
2026-04-20 22:24 38.92419 -97.11116 34374 ft 439 kts 272°
2026-04-20 22:24 38.92434 -97.15040 34750 ft 438 kts 272°
2026-04-20 22:25 38.92448 -97.18942 35100 ft 437 kts 272°
2026-04-20 22:25 38.92461 -97.22846 35441 ft 437 kts 272°
2026-04-20 22:25 38.92472 -97.26745 35802 ft 436 kts 272°
2026-04-20 22:25 38.92482 -97.30639 36149 ft 435 kts 272°
2026-04-20 22:26 38.92490 -97.34521 36497 ft 434 kts 272°
2026-04-20 22:26 38.92498 -97.38392 36826 ft 434 kts 272°
2026-04-20 22:26 38.92504 -97.42207 37176 ft 433 kts 272°
2026-04-20 22:27 38.92512 -97.49920 37856 ft 431 kts 272°
2026-04-20 22:27 38.92514 -97.53775 38175 ft 431 kts 272°
2026-04-20 22:27 38.92514 -97.57618 38522 ft 430 kts 271°
2026-04-20 22:27 38.92251 -97.61439 38825 ft 431 kts 263°
2026-04-20 22:28 38.91534 -97.65192 39063 ft 435 kts 254°
2026-04-20 22:28 38.90453 -97.68822 39282 ft 436 kts 252°
2026-04-20 22:28 38.89348 -97.72446 39523 ft 435 kts 252°
2026-04-20 22:28 38.88237 -97.76059 39783 ft 435 kts 252°
2026-04-20 22:29 38.87121 -97.79664 40030 ft 434 kts 252°
2026-04-20 22:29 38.86003 -97.83285 40055 ft 438 kts 252°
2026-04-20 22:29 38.83762 -97.90531 40047 ft 434 kts 252°
2026-04-20 22:30 38.81534 -97.97716 40041 ft 433 kts 252°
2026-04-20 22:30 38.79303 -98.04890 40037 ft 433 kts 252°
2026-04-20 22:31 38.77062 -98.12076 40033 ft 433 kts 252°
2026-04-20 22:31 38.74820 -98.19247 40029 ft 434 kts 252°
2026-04-20 22:32 38.72587 -98.26372 40032 ft 434 kts 252°
2026-04-20 22:32 38.70337 -98.33535 40023 ft 434 kts 252°
2026-04-20 22:33 38.68081 -98.40695 40027 ft 433 kts 252°
2026-04-20 22:33 38.65822 -98.47848 40026 ft 434 kts 252°
2026-04-20 22:34 38.63557 -98.55003 40024 ft 434 kts 252°
2026-04-20 22:34 38.61285 -98.62160 40020 ft 434 kts 252°
2026-04-20 22:35 38.59009 -98.69312 40029 ft 434 kts 252°
2026-04-20 22:35 38.56729 -98.76456 40035 ft 434 kts 252°
2026-04-20 22:36 38.54444 -98.83601 40032 ft 434 kts 252°
2026-04-20 22:36 38.52152 -98.90748 40045 ft 435 kts 252°
2026-04-20 22:37 38.49855 -98.97892 40041 ft 435 kts 252°
2026-04-20 22:37 38.47556 -99.05026 40041 ft 435 kts 252°
2026-04-20 22:38 38.45265 -99.12114 40030 ft 434 kts 251°
2026-04-20 22:38 38.42959 -99.19233 40025 ft 434 kts 251°
2026-04-20 22:39 38.40651 -99.26341 40018 ft 434 kts 251°
2026-04-20 22:39 38.38339 -99.33443 40018 ft 433 kts 251°
2026-04-20 22:40 38.36023 -99.40538 40009 ft 433 kts 251°
2026-04-20 22:40 38.33704 -99.47626 40003 ft 433 kts 251°
2026-04-20 22:41 38.31380 -99.54712 39997 ft 433 kts 251°
2026-04-20 22:41 38.29052 -99.61791 39998 ft 433 kts 251°
2026-04-20 22:42 38.26725 -99.68854 39988 ft 433 kts 251°
2026-04-20 22:42 38.24388 -99.75925 39995 ft 433 kts 251°
2026-04-20 22:43 38.22046 -99.82998 39995 ft 434 kts 251°
2026-04-20 22:43 38.19695 -99.90075 39985 ft 434 kts 251°
2026-04-20 22:44 38.17345 -99.97138 39985 ft 434 kts 251°
2026-04-20 22:44 38.15004 -100.04152 39982 ft 434 kts 251°
2026-04-20 22:45 38.12649 -100.11192 39978 ft 433 kts 251°
2026-04-20 22:45 38.10290 -100.18229 39985 ft 433 kts 251°
2026-04-20 22:46 38.07929 -100.25254 39983 ft 433 kts 251°
2026-04-20 22:46 38.05563 -100.32276 39975 ft 432 kts 251°
2026-04-20 22:47 38.03193 -100.39292 39987 ft 433 kts 251°
2026-04-20 22:47 38.00815 -100.46318 39998 ft 434 kts 251°
2026-04-20 22:48 37.98432 -100.53338 40006 ft 433 kts 251°
2026-04-20 22:48 37.96047 -100.60350 40022 ft 433 kts 251°
2026-04-20 22:49 37.93664 -100.67339 40030 ft 432 kts 251°
2026-04-20 22:49 37.91783 -100.74442 40048 ft 425 kts 263°
2026-04-20 22:50 37.91060 -100.81855 40032 ft 424 kts 265°
2026-04-20 22:50 37.90383 -100.89275 40022 ft 424 kts 266°
2026-04-20 22:51 37.89707 -100.96689 40004 ft 424 kts 265°
2026-04-20 22:51 37.89021 -101.04119 39986 ft 425 kts 265°
2026-04-20 22:52 37.88332 -101.11564 39969 ft 425 kts 265°
2026-04-20 22:52 37.87638 -101.18984 39959 ft 424 kts 265°
2026-04-20 22:53 37.86941 -101.26401 39958 ft 424 kts 265°
2026-04-20 22:53 37.86239 -101.33811 39957 ft 424 kts 265°
2026-04-20 22:54 37.85537 -101.41176 39952 ft 424 kts 265°
2026-04-20 22:54 37.84825 -101.48592 39949 ft 424 kts 265°
2026-04-20 22:55 37.84110 -101.55996 39940 ft 424 kts 265°
2026-04-20 22:55 37.83390 -101.63400 39946 ft 423 kts 264°
2026-04-20 22:56 37.82666 -101.70795 39952 ft 424 kts 264°
2026-04-20 22:56 37.81936 -101.78197 39951 ft 424 kts 264°
2026-04-20 22:57 37.81203 -101.85588 39946 ft 423 kts 264°
2026-04-20 22:57 37.80466 -101.92964 39930 ft 422 kts 264°
2026-04-20 22:58 37.79727 -102.00328 39913 ft 423 kts 264°
2026-04-20 22:58 37.78985 -102.07660 39896 ft 423 kts 264°
2026-04-20 22:59 37.78234 -102.15044 39884 ft 423 kts 264°
2026-04-20 22:59 37.77478 -102.22416 39879 ft 422 kts 264°
2026-04-20 23:00 37.76721 -102.29771 39871 ft 422 kts 264°
2026-04-20 23:00 37.75959 -102.37112 39874 ft 421 kts 264°
2026-04-20 23:01 37.75198 -102.44410 39870 ft 422 kts 264°
2026-04-20 23:01 37.74428 -102.51745 39870 ft 421 kts 264°
2026-04-20 23:02 37.73653 -102.59086 39872 ft 422 kts 264°
2026-04-20 23:02 37.72873 -102.66425 39876 ft 422 kts 264°
2026-04-20 23:03 37.72087 -102.73771 39874 ft 421 kts 264°
2026-04-20 23:03 37.71301 -102.81085 39869 ft 419 kts 264°
2026-04-20 23:04 37.70510 -102.88394 39873 ft 421 kts 264°
2026-04-20 23:04 37.69715 -102.95699 39872 ft 420 kts 264°
2026-04-20 23:05 37.68916 -103.02996 39880 ft 420 kts 264°
2026-04-20 23:05 37.68111 -103.10308 39881 ft 422 kts 264°
2026-04-20 23:06 37.67299 -103.17641 39883 ft 422 kts 264°
2026-04-20 23:06 37.66487 -103.24931 39885 ft 423 kts 264°
2026-04-20 23:07 37.65664 -103.32279 39886 ft 423 kts 264°
2026-04-20 23:07 37.64835 -103.39632 39893 ft 424 kts 264°
2026-04-20 23:08 37.64000 -103.47000 39890 ft 425 kts 264°
2026-04-20 23:08 37.63159 -103.54381 39887 ft 425 kts 263°
2026-04-20 23:09 37.62457 -103.60509 39879 ft 424 kts 263°
2026-04-20 23:09 37.61608 -103.67885 39877 ft 425 kts 263°
2026-04-20 23:10 37.60753 -103.75265 39876 ft 425 kts 263°
2026-04-20 23:10 37.59894 -103.82643 39871 ft 426 kts 263°
2026-04-20 23:11 37.59028 -103.90037 39868 ft 426 kts 263°
2026-04-20 23:11 37.58156 -103.97442 39870 ft 427 kts 263°
2026-04-20 23:12 37.57281 -104.04829 39870 ft 425 kts 263°
2026-04-20 23:12 37.56403 -104.12207 39879 ft 426 kts 263°
2026-04-20 23:13 37.55518 -104.19596 39910 ft 427 kts 263°
2026-04-20 23:13 37.54633 -104.26948 39922 ft 427 kts 263°
2026-04-20 23:14 37.53737 -104.34351 39939 ft 426 kts 263°
2026-04-20 23:14 37.52839 -104.41734 39945 ft 426 kts 263°
2026-04-20 23:15 37.51936 -104.49107 39936 ft 425 kts 263°
2026-04-20 23:15 37.51030 -104.56479 39934 ft 425 kts 263°
2026-04-20 23:16 37.50121 -104.63838 39926 ft 425 kts 263°
2026-04-20 23:16 37.49210 -104.71164 39928 ft 426 kts 262°
2026-04-20 23:17 37.48288 -104.78546 39940 ft 426 kts 262°
2026-04-20 23:17 37.47362 -104.85922 39953 ft 426 kts 262°
2026-04-20 23:18 37.46431 -104.93297 39974 ft 426 kts 262°
2026-04-20 23:18 37.45497 -105.00660 39982 ft 427 kts 262°
2026-04-20 23:19 37.44555 -105.08041 39999 ft 427 kts 262°
2026-04-20 23:19 37.43610 -105.15413 40013 ft 428 kts 262°
2026-04-20 23:20 37.42659 -105.22794 40026 ft 427 kts 262°
2026-04-20 23:20 37.41704 -105.30175 40025 ft 428 kts 262°
2026-04-20 23:21 37.40748 -105.37515 40027 ft 427 kts 262°
2026-04-20 23:21 37.39783 -105.44897 40040 ft 428 kts 262°
2026-04-20 23:22 37.38810 -105.52295 40073 ft 429 kts 262°
2026-04-20 23:22 37.37833 -105.59692 40102 ft 430 kts 262°
2026-04-20 23:23 37.36848 -105.67112 40135 ft 430 kts 261°
2026-04-20 23:23 37.35863 -105.74487 40163 ft 431 kts 261°
2026-04-20 23:24 37.34853 -105.81903 40181 ft 430 kts 258°
2026-04-20 23:24 37.33489 -105.89247 40185 ft 433 kts 258°
2026-04-20 23:25 37.32124 -105.96620 40164 ft 434 kts 258°
2026-04-20 23:25 37.30745 -106.04002 40137 ft 435 kts 258°
2026-04-20 23:26 37.29359 -106.11417 40109 ft 435 kts 258°
2026-04-20 23:26 37.27967 -106.18819 40094 ft 436 kts 258°
2026-04-20 23:27 37.26570 -106.26230 40088 ft 435 kts 258°
2026-04-20 23:27 37.25170 -106.33629 40100 ft 436 kts 258°
2026-04-20 23:28 37.23761 -106.41050 40110 ft 437 kts 257°
2026-04-20 23:28 37.22346 -106.48469 40132 ft 438 kts 258°
2026-04-20 23:29 37.20928 -106.55883 40122 ft 437 kts 257°
2026-04-20 23:29 37.19503 -106.63301 40127 ft 438 kts 258°
2026-04-20 23:30 37.18072 -106.70730 40136 ft 438 kts 257°
2026-04-20 23:30 37.16645 -106.78109 40162 ft 440 kts 257°
2026-04-20 23:31 37.15198 -106.85565 40173 ft 440 kts 257°
2026-04-20 23:31 37.13745 -106.93022 40183 ft 440 kts 257°
2026-04-20 23:32 37.12287 -107.00480 40187 ft 441 kts 257°
2026-04-20 23:32 37.10821 -107.07949 40170 ft 442 kts 257°
2026-04-20 23:33 37.09349 -107.15427 40153 ft 442 kts 257°
2026-04-20 23:33 37.07870 -107.22912 40119 ft 443 kts 257°
2026-04-20 23:34 37.06386 -107.30393 40086 ft 443 kts 257°
2026-04-20 23:34 37.04896 -107.37878 40061 ft 443 kts 257°
2026-04-20 23:35 37.02661 -107.49056 40089 ft 443 kts 257°
2026-04-20 23:36 37.01157 -107.56548 40101 ft 444 kts 257°
2026-04-20 23:36 36.99643 -107.64059 40113 ft 445 kts 257°
2026-04-20 23:37 36.98124 -107.71573 40120 ft 445 kts 257°
2026-04-20 23:37 36.96601 -107.79079 40114 ft 446 kts 257°
2026-04-20 23:38 36.95072 -107.86587 40096 ft 445 kts 257°
2026-04-20 23:38 36.93538 -107.94098 40068 ft 446 kts 257°
2026-04-20 23:39 36.91994 -108.01624 40053 ft 447 kts 256°
2026-04-20 23:39 36.90456 -108.09099 40072 ft 447 kts 256°
2026-04-20 23:40 36.88900 -108.16633 40089 ft 448 kts 256°
2026-04-20 23:40 36.87340 -108.24165 40090 ft 448 kts 256°
2026-04-20 23:41 36.85770 -108.31712 40088 ft 448 kts 256°
2026-04-20 23:41 36.84199 -108.39246 40074 ft 449 kts 256°
2026-04-20 23:42 36.82616 -108.46801 40050 ft 453 kts 257°
2026-04-20 23:42 36.81008 -108.54464 40022 ft 463 kts 257°
2026-04-20 23:43 36.79366 -108.62245 39984 ft 463 kts 257°
2026-04-20 23:43 36.77720 -108.70032 39956 ft 463 kts 257°
2026-04-20 23:44 36.76068 -108.77809 39952 ft 465 kts 257°
2026-04-20 23:44 36.74408 -108.85605 39952 ft 466 kts 257°
2026-04-20 23:45 36.72740 -108.93404 39954 ft 465 kts 257°
2026-04-20 23:45 36.71070 -109.01189 39956 ft 465 kts 257°
2026-04-20 23:46 36.69395 -109.08972 39961 ft 466 kts 257°
2026-04-20 23:46 36.67710 -109.16771 39960 ft 466 kts 257°
2026-04-20 23:47 36.66028 -109.24528 39955 ft 466 kts 257°
2026-04-20 23:47 36.64334 -109.32319 39953 ft 467 kts 257°
2026-04-20 23:48 36.62632 -109.40116 39959 ft 466 kts 257°
2026-04-20 23:48 36.60926 -109.47905 39947 ft 466 kts 257°
2026-04-20 23:49 36.59216 -109.55689 39943 ft 466 kts 256°
2026-04-20 23:49 36.57497 -109.63484 39943 ft 467 kts 256°
2026-04-20 23:50 36.55785 -109.71223 39941 ft 465 kts 256°
2026-04-20 23:50 36.54065 -109.78970 39943 ft 465 kts 256°
2026-04-20 23:51 36.52339 -109.86718 39949 ft 464 kts 256°
2026-04-20 23:51 36.50609 -109.94460 39952 ft 465 kts 256°
2026-04-20 23:52 36.48871 -110.02210 39949 ft 465 kts 256°
2026-04-20 23:52 36.47129 -110.09950 39959 ft 465 kts 256°
2026-04-20 23:53 36.45390 -110.17659 39956 ft 463 kts 256°
2026-04-20 23:53 36.43644 -110.25366 39955 ft 464 kts 256°
2026-04-20 23:54 36.41893 -110.33074 39952 ft 464 kts 256°
2026-04-20 23:54 36.40136 -110.40778 39948 ft 464 kts 256°
2026-04-20 23:55 36.38375 -110.48480 39944 ft 464 kts 256°
2026-04-20 23:55 36.36608 -110.56180 39939 ft 464 kts 256°
2026-04-20 23:56 36.34836 -110.63879 39935 ft 464 kts 256°
2026-04-20 23:56 36.33358 -110.70279 39934 ft 465 kts 256°
2026-04-20 23:57 36.31572 -110.77993 39935 ft 465 kts 256°
2026-04-20 23:57 36.29492 -110.86944 39924 ft 465 kts 256°
2026-04-20 23:58 36.27990 -110.93387 39934 ft 464 kts 255°
2026-04-20 23:58 36.26204 -111.01024 39925 ft 464 kts 255°
2026-04-20 23:59 36.24408 -111.08682 39925 ft 462 kts 255°
2026-04-20 23:59 36.22612 -111.16318 39920 ft 462 kts 255°
2026-04-21 00:00 36.20811 -111.23946 39919 ft 461 kts 255°
2026-04-21 00:00 36.19006 -111.31567 39916 ft 461 kts 255°
2026-04-21 00:01 36.17197 -111.39185 39920 ft 461 kts 255°
2026-04-21 00:01 36.15385 -111.46790 39925 ft 461 kts 255°
2026-04-21 00:02 36.13567 -111.54395 39930 ft 460 kts 255°
2026-04-21 00:02 36.11750 -111.61974 39936 ft 459 kts 255°
2026-04-21 00:03 36.09931 -111.69538 39944 ft 459 kts 255°
2026-04-21 00:03 36.08108 -111.77093 39976 ft 458 kts 254°
2026-04-21 00:04 36.06060 -111.84539 40055 ft 458 kts 249°
2026-04-21 00:04 36.03716 -111.91877 40101 ft 458 kts 249°
2026-04-21 00:05 36.01385 -111.99173 40148 ft 456 kts 249°
2026-04-21 00:05 35.99052 -112.06449 40187 ft 455 kts 249°
2026-04-21 00:06 35.96720 -112.13710 40186 ft 454 kts 249°
2026-04-21 00:06 35.94404 -112.20900 40187 ft 453 kts 249°
2026-04-21 00:07 35.92071 -112.28126 40164 ft 453 kts 249°
2026-04-21 00:07 35.89736 -112.35339 40111 ft 453 kts 249°
2026-04-21 00:08 35.87396 -112.42549 40058 ft 452 kts 249°
2026-04-21 00:08 35.85062 -112.49728 39999 ft 451 kts 248°
2026-04-21 00:09 35.82721 -112.56906 39946 ft 451 kts 248°
2026-04-21 00:09 35.80380 -112.64068 39947 ft 450 kts 248°
2026-04-21 00:10 35.78036 -112.71223 39946 ft 450 kts 248°
2026-04-21 00:10 35.75695 -112.78353 39948 ft 449 kts 248°
2026-04-21 00:11 35.73368 -112.85421 39948 ft 448 kts 248°
2026-04-21 00:11 35.71026 -112.92520 39945 ft 447 kts 248°
2026-04-21 00:12 35.68680 -112.99612 39940 ft 447 kts 248°
2026-04-21 00:12 35.66338 -113.06676 39943 ft 446 kts 247°
2026-04-21 00:13 35.63989 -113.13745 39935 ft 446 kts 247°
2026-04-21 00:13 35.61644 -113.20786 39933 ft 445 kts 247°
2026-04-21 00:14 35.59291 -113.27833 39919 ft 445 kts 247°
2026-04-21 00:14 35.56934 -113.34877 39915 ft 445 kts 246°
2026-04-21 00:15 35.54586 -113.41875 39909 ft 445 kts 246°
2026-04-21 00:15 35.52226 -113.48895 39902 ft 444 kts 246°
2026-04-21 00:16 35.49865 -113.55899 39896 ft 444 kts 246°
2026-04-21 00:16 35.47499 -113.62903 39900 ft 444 kts 246°
2026-04-21 00:17 35.45132 -113.69895 39927 ft 444 kts 246°
2026-04-21 00:17 35.42759 -113.76889 39955 ft 445 kts 246°
2026-04-21 00:18 35.40379 -113.83886 39982 ft 444 kts 246°
2026-04-21 00:18 35.37994 -113.90884 40007 ft 445 kts 246°
2026-04-21 00:19 35.35604 -113.97879 40019 ft 445 kts 245°
2026-04-21 00:19 35.33211 -114.04867 40013 ft 444 kts 245°
2026-04-21 00:20 35.30816 -114.11844 39993 ft 444 kts 245°
2026-04-21 00:20 35.28424 -114.18796 39965 ft 443 kts 245°
2026-04-21 00:21 35.26033 -114.25731 39935 ft 442 kts 245°
2026-04-21 00:21 35.23656 -114.32610 39878 ft 441 kts 245°
2026-04-21 00:22 35.21265 -114.39515 39881 ft 441 kts 245°
2026-04-21 00:22 35.18862 -114.46437 39890 ft 442 kts 245°
2026-04-21 00:23 35.16458 -114.53347 39882 ft 442 kts 245°
2026-04-21 00:23 35.14046 -114.60266 39883 ft 442 kts 245°
2026-04-21 00:24 35.11638 -114.67183 39886 ft 443 kts 245°
2026-04-21 00:24 35.09238 -114.74106 39886 ft 443 kts 245°
2026-04-21 00:25 35.06825 -114.81022 39885 ft 442 kts 245°
2026-04-21 00:25 35.04416 -114.87930 39896 ft 442 kts 245°
2026-04-21 00:26 35.01736 -114.94591 39900 ft 440 kts 240°
2026-04-21 00:26 34.98890 -115.01195 39906 ft 439 kts 240°
2026-04-21 00:27 34.96033 -115.07771 39916 ft 438 kts 240°
2026-04-21 00:27 34.93183 -115.14334 39920 ft 438 kts 240°
2026-04-21 00:28 34.90331 -115.20884 39924 ft 437 kts 240°
2026-04-21 00:28 34.87485 -115.27411 39931 ft 436 kts 240°
2026-04-21 00:29 34.84641 -115.33918 39930 ft 435 kts 240°
2026-04-21 00:29 34.81797 -115.40414 39930 ft 434 kts 240°
2026-04-21 00:30 34.79000 -115.46916 39935 ft 433 kts 245°
2026-04-21 00:30 34.76550 -115.53613 39923 ft 433 kts 244°
2026-04-21 00:31 34.74087 -115.60296 39918 ft 433 kts 244°
2026-04-21 00:31 34.71631 -115.66965 39917 ft 431 kts 244°
2026-04-21 00:32 34.69173 -115.73613 39917 ft 431 kts 244°
2026-04-21 00:32 34.66716 -115.80253 39916 ft 430 kts 244°
2026-04-21 00:33 34.64274 -115.86835 39914 ft 430 kts 244°
2026-04-21 00:33 34.61822 -115.93460 39906 ft 429 kts 244°
2026-04-21 00:34 34.59398 -116.00062 39908 ft 427 kts 244°
2026-04-21 00:34 34.56963 -116.06639 39918 ft 427 kts 244°
2026-04-21 00:35 34.54531 -116.13216 39915 ft 427 kts 244°
2026-04-21 00:35 34.52089 -116.19799 39007 ft 429 kts 244°
2026-04-21 00:35 34.50870 -116.23083 38347 ft 428 kts 244°
2026-04-21 00:36 34.49648 -116.26369 37603 ft 430 kts 244°
2026-04-21 00:36 34.48409 -116.29694 36832 ft 436 kts 244°
2026-04-21 00:36 34.47150 -116.33072 36013 ft 442 kts 244°
2026-04-21 00:36 34.45875 -116.36493 35157 ft 447 kts 244°
2026-04-21 00:37 34.44590 -116.39937 34250 ft 451 kts 244°
2026-04-21 00:37 34.43288 -116.43419 33270 ft 454 kts 244°
2026-04-21 00:37 34.41984 -116.46909 32302 ft 457 kts 244°
2026-04-21 00:37 34.40578 -116.50363 31333 ft 455 kts 242°
2026-04-21 00:38 34.39173 -116.53786 30387 ft 454 kts 242°
2026-04-21 00:38 34.37799 -116.57167 29415 ft 451 kts 242°
2026-04-21 00:38 34.36409 -116.60543 28505 ft 446 kts 242°
2026-04-21 00:38 34.35036 -116.63851 28057 ft 432 kts 242°
2026-04-21 00:39 34.33725 -116.67028 27919 ft 412 kts 242°
2026-04-21 00:39 34.32469 -116.70099 27417 ft 403 kts 242°
2026-04-21 00:39 34.31260 -116.73133 26893 ft 397 kts 242°
2026-04-21 00:39 34.30068 -116.76128 26386 ft 394 kts 242°
2026-04-21 00:40 34.28869 -116.79102 25867 ft 393 kts 242°
2026-04-21 00:40 34.27670 -116.82062 25369 ft 391 kts 242°
2026-04-21 00:40 34.26465 -116.85049 24850 ft 389 kts 242°
2026-04-21 00:40 34.25286 -116.87979 24353 ft 386 kts 242°
2026-04-21 00:41 34.24111 -116.90888 23842 ft 383 kts 242°
2026-04-21 00:41 34.22948 -116.93761 23315 ft 379 kts 241°
2026-04-21 00:41 34.22184 -116.95650 22981 ft 376 kts 241°
2026-04-21 00:41 34.21077 -116.98487 22493 ft 372 kts 246°
2026-04-21 00:42 34.20016 -117.02413 21841 ft 370 kts 249°
2026-04-21 00:42 34.19210 -117.05351 21362 ft 368 kts 249°
2026-04-21 00:42 34.18412 -117.08281 20886 ft 365 kts 249°
2026-04-21 00:42 34.17629 -117.11185 20406 ft 362 kts 249°
2026-04-21 00:43 34.17102 -117.13137 20080 ft 361 kts 249°
2026-04-21 00:43 34.16323 -117.16007 19609 ft 359 kts 249°
2026-04-21 00:43 34.15549 -117.18822 19145 ft 355 kts 249°
2026-04-21 00:43 34.14772 -117.21640 18680 ft 352 kts 249°
2026-04-21 00:44 34.14001 -117.24438 18201 ft 350 kts 249°
2026-04-21 00:44 34.13240 -117.27209 17720 ft 346 kts 249°
2026-04-21 00:44 34.12484 -117.29949 17267 ft 343 kts 249°
2026-04-21 00:45 34.10982 -117.35388 16362 ft 340 kts 249°
2026-04-21 00:45 34.10278 -117.38099 15910 ft 338 kts 252°
2026-04-21 00:45 34.09619 -117.40809 15455 ft 336 kts 250°
2026-04-21 00:45 34.08911 -117.43487 15000 ft 334 kts 250°
2026-04-21 00:46 34.08231 -117.46158 14562 ft 332 kts 251°
2026-04-21 00:46 34.07584 -117.48789 14130 ft 322 kts 251°
2026-04-21 00:46 34.06804 -117.51243 13926 ft 303 kts 243°
2026-04-21 00:46 34.05974 -117.53528 13513 ft 293 kts 244°
2026-04-21 00:47 34.05198 -117.55759 13123 ft 284 kts 244°
2026-04-21 00:47 34.04431 -117.57908 12762 ft 274 kts 244°
2026-04-21 00:47 34.03678 -117.59980 12413 ft 265 kts 244°
2026-04-21 00:47 34.02945 -117.62007 12076 ft 269 kts 244°
2026-04-21 00:48 34.02172 -117.64143 11745 ft 284 kts 244°
2026-04-21 00:48 34.01385 -117.66332 11394 ft 285 kts 244°
2026-04-21 00:48 34.00675 -117.68565 11029 ft 288 kts 255°
2026-04-21 00:48 34.00453 -117.70978 10660 ft 290 kts 260°
2026-04-21 00:49 34.00202 -117.73393 10290 ft 290 kts 259°
2026-04-21 00:49 33.99951 -117.75793 9910 ft 289 kts 259°
2026-04-21 00:49 33.99718 -117.78208 9514 ft 289 kts 260°
2026-04-21 00:49 33.99488 -117.80594 9144 ft 286 kts 260°
2026-04-21 00:50 33.99256 -117.82966 8772 ft 284 kts 260°
2026-04-21 00:50 33.99026 -117.85323 8411 ft 282 kts 260°
2026-04-21 00:50 33.98802 -117.87634 8056 ft 281 kts 260°
2026-04-21 00:50 33.98575 -117.89970 7680 ft 279 kts 260°
2026-04-21 00:51 33.98347 -117.92291 7325 ft 278 kts 260°
2026-04-21 00:51 33.98119 -117.94598 6950 ft 274 kts 260°
2026-04-21 00:51 33.97894 -117.96874 6632 ft 274 kts 260°
2026-04-21 00:51 33.97660 -117.99236 6252 ft 274 kts 260°
2026-04-21 00:52 33.97443 -118.01433 5900 ft 272 kts 261°
2026-04-21 00:52 33.97219 -118.03689 5546 ft 270 kts 261°
2026-04-21 00:52 33.96995 -118.05934 5202 ft 270 kts 261°
2026-04-21 00:52 33.96773 -118.08169 4870 ft 268 kts 261°
2026-04-21 00:53 33.96555 -118.10367 4593 ft 258 kts 262°
2026-04-21 00:53 33.96351 -118.12542 4285 ft 258 kts 262°
2026-04-21 00:53 33.96148 -118.14594 3953 ft 237 kts 262°
2026-04-21 00:53 33.95956 -118.16499 3636 ft 223 kts 262°
2026-04-21 00:54 33.95772 -118.18307 3368 ft 212 kts 262°
2026-04-21 00:54 33.95597 -118.20029 3085 ft 203 kts 262°
2026-04-21 00:54 33.95428 -118.21686 2819 ft 195 kts 262°
2026-04-21 00:54 33.95267 -118.23263 2575 ft 189 kts 262°
2026-04-21 00:55 33.95114 -118.24767 2331 ft 172 kts 262°
2026-04-21 00:55 33.94976 -118.26127 2102 ft 157 kts 262°
2026-04-21 00:55 33.94848 -118.27375 1900 ft 142 kts 262°
2026-04-21 00:55 33.94737 -118.28503 1731 ft 132 kts 261°
2026-04-21 00:56 33.94627 -118.29560 1550 ft 127 kts 263°
2026-04-21 00:56 33.94517 -118.30653 1380 ft 129 kts 261°
2026-04-21 00:56 33.94402 -118.31705 1214 ft 126 kts 262°
2026-04-21 00:56 33.94298 -118.32746 1046 ft 127 kts 263°
2026-04-21 00:57 33.94184 -118.33828 855 ft 131 kts 263°
2026-04-21 00:57 33.94078 -118.34886 700 ft 123 kts 264°
2026-04-21 00:57 33.93973 -118.35933 534 ft 133 kts 265°
2026-04-21 00:57 33.93870 -118.37009 328 ft 124 kts 265°
2026-04-21 00:58 33.93765 -118.38024 210 ft 122 kts 262°
2026-04-21 00:58 33.93667 -118.38973 112 ft 93 kts 262°
2026-04-21 00:58 33.93616 -118.39491 115 ft 47 kts 264°
2026-04-21 00:58 33.93609 -118.39788 113 ft 25 kts 281°
2026-04-21 00:59 33.93655 -118.39961 111 ft 20 kts 285°
2026-04-21 00:59 33.93659 -118.40096 112 ft 13 kts 263°
2026-04-21 00:59 33.93651 -118.40181 109 ft 12 kts 264°
2026-04-21 00:59 33.93650 -118.40299 110 ft 14 kts 279°
2026-04-21 01:00 33.93698 -118.40393 111 ft 12 kts 321°
2026-04-21 01:00 33.93779 -118.40432 112 ft 13 kts 354°
2026-04-21 01:00 33.93842 -118.40356 109 ft 16 kts 77°
2026-04-21 01:00 33.93855 -118.40216 110 ft 18 kts 81°
2026-04-21 01:01 33.93868 -118.40087 109 ft 12 kts 83°
2026-04-21 01:01 33.93880 -118.39980 110 ft 14 kts 83°
2026-04-21 01:01 33.93893 -118.39864 109 ft 9 kts 78°
2026-04-21 01:01 33.93941 -118.39810 106 ft 12 kts
2026-04-21 01:02 33.93985 -118.39845 104 ft 6 kts 313°
2026-04-21 01:02 33.93995 -118.39859 104 ft 1 kts 294°
2026-04-21 01:02 33.93994 -118.39867 104 ft 1 kts 256°
2026-04-21 01:02 33.93988 -118.39885 105 ft 2 kts 268°
2026-04-21 01:03 33.93997 -118.39896 104 ft 2 kts 330°
2026-04-21 01:03 33.94026 -118.39902 104 ft 5 kts 351°
2026-04-21 01:03 33.94035 -118.39903 104 ft 0 kts 352°